,,,PA_Meas_PMT16A,,PR_Meas_QMR101_102,,RH_Meas_QMH101,,SR_Meas_QMS101,,TA_Meas_QMH101,,GenWind,,GenWind,
date,time,status,PA,status,PR,status,RH,status,SR,status,TA,status,DirAvg,status,SpdAvg,
2011-04-02, 00:00:04,VALID,1003.51,VALID,0,INVALID,163.563,VALID,0,VALID,26.4861,VALID,65,VALID,0.824219,
2011-04-02, 00:01:04,VALID,1003.49,VALID,0,INVALID,163.556,VALID,0,VALID,26.4687,VALID,38,VALID,0.463281,
2011-04-02, 00:02:04,VALID,1003.44,VALID,0,INVALID,163.563,VALID,0,VALID,26.4472,VALID,77,VALID,1.38945,
2011-04-02, 00:03:04,VALID,1003.42,VALID,0,INVALID,163.563,VALID,0,VALID,26.4881,VALID,57,VALID,1.11758,
2011-04-02, 00:04:04,VALID,1003.38,VALID,0,INVALID,163.556,VALID,0,VALID,26.5056,VALID,93,VALID,1.37891,
2011-04-02, 00:05:04,VALID,1003.35,VALID,0,INVALID,163.563,VALID,0,VALID,26.5251,VALID,94,VALID,0.996094,
2011-04-02, 00:06:04,VALID,1003.3,VALID,0,INVALID,163.548,VALID,0,VALID,26.5251,VALID,60,VALID,0.598437,
2011-04-02, 00:07:04,VALID,1003.27,VALID,0,INVALID,163.556,VALID,0,VALID,26.5271,VALID,46,VALID,0.972656,
2011-04-02, 00:08:04,VALID,1003.21,VALID,0,INVALID,163.54,VALID,0.100563,VALID,26.5271,VALID,108,VALID,1.72852,
2011-04-02, 00:09:04,VALID,1003.21,VALID,0,INVALID,163.563,VALID,0,VALID,26.5466,VALID,48,VALID,0.885156,
2011-04-02, 00:10:04,VALID,1003.2,VALID,0,INVALID,163.556,VALID,0,VALID,26.5056,VALID,54,VALID,1.15273,
2011-04-02, 00:11:04,VALID,1003.2,VALID,0,INVALID,163.54,VALID,0,VALID,26.5466,VALID,38,VALID,1.47187,
2011-04-02, 00:12:04,VALID,1003.17,VALID,0,INVALID,163.533,VALID,0.100563,VALID,26.5426,VALID,34,VALID,1.76523,
2011-04-02, 00:13:04,VALID,1003.18,VALID,0,INVALID,163.525,VALID,0,VALID,26.5446,VALID,84,VALID,0.93125,
2011-04-02, 00:14:04,VALID,1003.17,VALID,0,INVALID,163.563,VALID,0,VALID,26.5271,VALID,103,VALID,2.02109,
2011-04-02, 00:15:04,VALID,1003.13,VALID,0,INVALID,163.548,VALID,0,VALID,26.5056,VALID,26,VALID,0.989453,
2011-04-02, 00:16:04,VALID,1003.13,VALID,0,INVALID,163.563,VALID,0,VALID,26.5056,VALID,62,VALID,0.705859,
2011-04-02, 00:17:04,VALID,1003.16,VALID,0,INVALID,163.525,VALID,0,VALID,26.5056,VALID,80,VALID,0.677344,
2011-04-02, 00:18:04,VALID,1003.15,VALID,0,INVALID,163.556,VALID,0,VALID,26.4861,VALID,49,VALID,1.96016,
2011-04-02, 00:19:04,VALID,1003.13,VALID,0,INVALID,163.54,VALID,0,VALID,26.5271,VALID,34,VALID,0.9875,
2011-04-02, 00:20:04,VALID,1003.12,VALID,0,INVALID,163.548,VALID,0,VALID,26.5271,VALID,55,VALID,1.35,
2011-04-02, 00:21:04,VALID,1003.12,VALID,0,INVALID,163.525,VALID,0,VALID,26.5056,VALID,90,VALID,0.775391,
2011-04-02, 00:22:04,VALID,1003.12,VALID,0,INVALID,163.533,VALID,0,VALID,26.5076,VALID,78,VALID,1.11875,
2011-04-02, 00:23:04,VALID,1003.13,VALID,0,INVALID,163.517,VALID,0,VALID,26.5466,VALID,50,VALID,0.579687,
2011-04-02, 00:24:04,VALID,1003.09,VALID,0,INVALID,163.502,VALID,0,VALID,26.5251,VALID,80,VALID,0.783203,
2011-04-02, 00:25:04,VALID,1003.08,VALID,0,INVALID,163.533,VALID,0,VALID,26.5251,VALID,69,VALID,0.869922,
2011-04-02, 00:26:04,VALID,1003.06,VALID,0,INVALID,163.525,VALID,0,VALID,26.5466,VALID,68,VALID,0.460156,
2011-04-02, 00:27:04,VALID,1003.08,VALID,0,INVALID,163.54,VALID,0,VALID,26.4841,VALID,83,VALID,0.751562,
2011-04-02, 00:28:04,VALID,1003.07,VALID,0,INVALID,163.533,VALID,0,VALID,26.5056,VALID,72,VALID,1.39609,
2011-04-02, 00:29:04,VALID,1003.09,VALID,0,INVALID,163.556,VALID,0.100563,VALID,26.4861,VALID,65,VALID,1.31406,
2011-04-02, 00:30:04,VALID,1003.08,VALID,0,INVALID,163.54,VALID,0,VALID,26.5056,VALID,86,VALID,1.4207,
2011-04-02, 00:31:04,VALID,1003.04,VALID,0,INVALID,163.517,VALID,0,VALID,26.5251,VALID,101,VALID,1.15078,
2011-04-02, 00:32:04,VALID,1003.06,VALID,0,INVALID,163.548,VALID,0,VALID,26.5056,VALID,72,VALID,1.84961,
2011-04-02, 00:33:04,VALID,1003.02,VALID,0,INVALID,163.563,VALID,0,VALID,26.5251,VALID,98,VALID,0.589844,
2011-04-02, 00:34:04,VALID,1003.01,VALID,0,INVALID,163.556,VALID,0,VALID,26.4861,VALID,75,VALID,0.528906,
2011-04-02, 00:35:04,VALID,1002.99,VALID,0,INVALID,163.563,VALID,0,VALID,26.4687,VALID,63,VALID,0.50625,
2011-04-02, 00:36:04,VALID,1002.96,VALID,0,INVALID,163.578,VALID,0,VALID,26.4277,VALID,106,VALID,0.648438,
2011-04-02, 00:37:04,VALID,1002.94,VALID,0,INVALID,163.571,VALID,0,VALID,26.4277,VALID,56,VALID,1.33359,
2011-04-02, 00:38:04,VALID,1002.9,VALID,0,INVALID,163.548,VALID,0,VALID,26.4277,VALID,95,VALID,0.371875,
2011-04-02, 00:39:04,VALID,1002.86,VALID,0,INVALID,163.533,VALID,0,VALID,26.4492,VALID,99,VALID,1.33555,
2011-04-02, 00:40:04,VALID,1002.84,VALID,0,INVALID,163.533,VALID,0,VALID,26.4277,VALID,28,VALID,0.869531,
2011-04-02, 00:41:04,VALID,1002.79,VALID,0,INVALID,163.556,VALID,0,VALID,26.3867,VALID,45,VALID,0.461328,
2011-04-02, 00:42:04,VALID,1002.77,VALID,0,INVALID,163.571,VALID,0,VALID,26.3693,VALID,48,VALID,0.932422,
2011-04-02, 00:43:04,VALID,1002.77,VALID,0,INVALID,163.54,VALID,0,VALID,26.3693,VALID,33,VALID,0.669531,
2011-04-02, 00:44:04,VALID,1002.77,VALID,0,INVALID,163.578,VALID,0,VALID,26.3907,VALID,27,VALID,0.957422,
2011-04-02, 00:45:04,VALID,1002.75,VALID,0,INVALID,163.548,VALID,0,VALID,26.3693,VALID,28,VALID,0.801172,
2011-04-02, 00:46:04,VALID,1002.72,VALID,0,INVALID,163.556,VALID,0,VALID,26.3713,VALID,38,VALID,0.628516,
2011-04-02, 00:47:04,VALID,1002.68,VALID,0,INVALID,163.533,VALID,0,VALID,26.3713,VALID,9,VALID,0.761328,
2011-04-02, 00:48:04,VALID,1002.64,VALID,0,INVALID,163.578,VALID,0,VALID,26.3713,VALID,37,VALID,0.917188,
2011-04-02, 00:49:04,VALID,1002.63,VALID,0,INVALID,163.548,VALID,0,VALID,26.3498,VALID,23,VALID,0.486328,
2011-04-02, 00:50:04,VALID,1002.58,VALID,0,INVALID,163.556,VALID,0,VALID,26.3498,VALID,81,VALID,0.3375,
2011-04-02, 00:51:04,VALID,1002.6,VALID,0,INVALID,163.556,VALID,0,VALID,26.3498,VALID,29,VALID,0.820703,
2011-04-02, 00:52:04,VALID,1002.58,VALID,0,INVALID,163.556,VALID,0,VALID,26.3907,VALID,36,VALID,0.696094,
2011-04-02, 00:53:04,VALID,1002.54,VALID,0,INVALID,163.586,VALID,0,VALID,26.4102,VALID,37,VALID,0.637891,
2011-04-02, 00:54:04,VALID,1002.51,VALID,0,INVALID,163.556,VALID,0,VALID,26.4082,VALID,15,VALID,0.825781,
2011-04-02, 00:55:04,VALID,1002.52,VALID,0,INVALID,163.563,VALID,0,VALID,26.3693,VALID,109,VALID,0.50625,
2011-04-02, 00:56:04,VALID,1002.51,VALID,0,INVALID,163.533,VALID,0,VALID,26.3907,VALID,51,VALID,0.314453,
2011-04-02, 00:57:04,VALID,1002.45,VALID,0,INVALID,163.525,VALID,0,VALID,26.3498,VALID,54,VALID,0.147266,
2011-04-02, 00:58:04,VALID,1002.44,VALID,0,INVALID,163.548,VALID,0,VALID,26.3713,VALID,53,VALID,0.285547,
2011-04-02, 00:59:04,VALID,1002.44,VALID,0,INVALID,163.556,VALID,0,VALID,26.3927,VALID,17,VALID,0.479688,
2011-04-02, 01:00:04,VALID,1002.42,VALID,0,INVALID,163.571,VALID,0,VALID,26.3518,VALID,65,VALID,0.31875,
2011-04-02, 01:01:04,VALID,1002.38,VALID,0,INVALID,163.556,VALID,0,VALID,26.3323,VALID,45,VALID,0.403516,
2011-04-02, 01:02:05,VALID,1002.38,VALID,0,INVALID,163.548,VALID,0,VALID,26.3128,VALID,30,VALID,0.554297,
2011-04-02, 01:03:05,VALID,1002.4,VALID,0,INVALID,163.556,VALID,0,VALID,26.2913,VALID,27,VALID,0.503125,
2011-04-02, 01:04:05,VALID,1002.37,VALID,0,INVALID,163.533,VALID,0,VALID,26.2913,VALID,61,VALID,0.444531,
2011-04-02, 01:05:05,VALID,1002.38,VALID,0,INVALID,163.578,VALID,0,VALID,26.2913,VALID,93,VALID,0.888281,
2011-04-02, 01:06:05,VALID,1002.39,VALID,0,INVALID,163.571,VALID,0,VALID,26.3108,VALID,74,VALID,0.674219,
2011-04-02, 01:07:05,VALID,1002.37,VALID,0,INVALID,163.556,VALID,0,VALID,26.3323,VALID,84,VALID,0.863281,
2011-04-02, 01:08:05,VALID,1002.37,VALID,0,INVALID,163.571,VALID,0,VALID,26.3108,VALID,96,VALID,1.21797,
2011-04-02, 01:09:05,VALID,1002.39,VALID,0,INVALID,163.563,VALID,0,VALID,26.3108,VALID,90,VALID,1.15156,
2011-04-02, 01:10:05,VALID,1002.37,VALID,0,INVALID,163.578,VALID,0,VALID,26.3108,VALID,92,VALID,0.91875,
2011-04-02, 01:11:05,VALID,1002.37,VALID,0,INVALID,163.563,VALID,0,VALID,26.3108,VALID,91,VALID,0.532031,
2011-04-02, 01:12:05,VALID,1002.37,VALID,0,INVALID,163.563,VALID,0,VALID,26.2913,VALID,93,VALID,0.303906,
2011-04-02, 01:13:05,VALID,1002.34,VALID,0,INVALID,163.571,VALID,0,VALID,26.2933,VALID,85,VALID,0.373828,
2011-04-02, 01:14:05,VALID,1002.34,VALID,0,INVALID,163.548,VALID,0.100563,VALID,26.2329,VALID,93,VALID,0.726172,
2011-04-02, 01:15:05,VALID,1002.33,VALID,0,INVALID,163.563,VALID,0,VALID,26.2134,VALID,85,VALID,0.477344,
2011-04-02, 01:16:05,VALID,1002.3,VALID,0,INVALID,163.578,VALID,0,VALID,26.2349,VALID,93,VALID,0.342578,
2011-04-02, 01:17:05,VALID,1002.29,VALID,0,INVALID,163.586,VALID,0,VALID,26.1959,VALID,107,VALID,0.901953,
2011-04-02, 01:18:05,VALID,1002.31,VALID,0,INVALID,163.563,VALID,0,VALID,26.1959,VALID,76,VALID,0.799219,
2011-04-02, 01:19:05,VALID,1002.29,VALID,0,INVALID,163.556,VALID,0,VALID,26.155,VALID,80,VALID,0.200781,
2011-04-02, 01:20:05,VALID,1002.26,VALID,0,INVALID,163.578,VALID,0,VALID,26.1355,VALID,91,VALID,0.622266,
2011-04-02, 01:21:05,VALID,1002.25,VALID,0,INVALID,163.571,VALID,0,VALID,26.116,VALID,95,VALID,0.339063,
2011-04-02, 01:22:05,VALID,1002.23,VALID,0,INVALID,163.578,VALID,0,VALID,26.118,VALID,95,VALID,0.331641,
2011-04-02, 01:23:05,VALID,1002.22,VALID,0,INVALID,163.594,VALID,0,VALID,26.118,VALID,74,VALID,0.401563,
2011-04-02, 01:24:05,VALID,1002.25,VALID,0,INVALID,163.594,VALID,0,VALID,26.0576,VALID,73,VALID,0,
2011-04-02, 01:25:05,VALID,1002.21,VALID,0,INVALID,163.571,VALID,0,VALID,26.0791,VALID,78,VALID,0.631641,
2011-04-02, 01:26:05,VALID,1002.21,VALID,0,INVALID,163.578,VALID,0.100563,VALID,26.0966,VALID,65,VALID,1.0332,
2011-04-02, 01:27:05,VALID,1002.19,VALID,0,INVALID,163.556,VALID,0,VALID,26.0966,VALID,59,VALID,0.911328,
2011-04-02, 01:28:05,VALID,1002.19,VALID,0,INVALID,163.556,VALID,0,VALID,26.0966,VALID,27,VALID,0.310156,
2011-04-02, 01:29:05,VALID,1002.18,VALID,0,INVALID,163.609,VALID,0,VALID,26.118,VALID,66,VALID,0.365234,
2011-04-02, 01:30:05,VALID,1002.16,VALID,0,INVALID,163.578,VALID,0,VALID,26.116,VALID,66,VALID,0.349219,
2011-04-02, 01:31:05,VALID,1002.13,VALID,0,INVALID,163.578,VALID,0,VALID,26.0966,VALID,65,VALID,0.347656,
2011-04-02, 01:32:05,VALID,1002.11,VALID,0,INVALID,163.578,VALID,0,VALID,26.118,VALID,64,VALID,0.236719,
2011-04-02, 01:33:05,VALID,1002.09,VALID,0,INVALID,163.586,VALID,0,VALID,26.0985,VALID,65,VALID,0.35625,
2011-04-02, 01:34:05,VALID,1002.03,VALID,0,INVALID,163.578,VALID,0.100563,VALID,26.0771,VALID,70,VALID,0.365625,
2011-04-02, 01:35:05,VALID,1002.02,VALID,0,INVALID,163.563,VALID,0,VALID,26.0791,VALID,57,VALID,0.553125,
2011-04-02, 01:36:05,VALID,1001.95,VALID,0,INVALID,163.578,VALID,0,VALID,26.0576,VALID,24,VALID,0.620313,
2011-04-02, 01:37:05,VALID,1001.97,VALID,0,INVALID,163.578,VALID,0.100563,VALID,26.0985,VALID,23,VALID,1.20195,
2011-04-02, 01:38:05,VALID,1001.92,VALID,0,INVALID,163.578,VALID,0,VALID,26.118,VALID,32,VALID,0.726172,
2011-04-02, 01:39:05,VALID,1001.92,VALID,0,INVALID,163.586,VALID,0,VALID,26.0966,VALID,23,VALID,1.02344,
2011-04-02, 01:40:05,VALID,1001.94,VALID,0,INVALID,163.578,VALID,0,VALID,26.1375,VALID,26,VALID,0.995313,
2011-04-02, 01:41:05,VALID,1001.9,VALID,0,INVALID,163.586,VALID,0.100563,VALID,26.116,VALID,16,VALID,0.64375,
2011-04-02, 01:42:05,VALID,1001.91,VALID,0,INVALID,163.586,VALID,0,VALID,26.1375,VALID,31,VALID,0.625781,
2011-04-02, 01:43:05,VALID,1001.88,VALID,0,INVALID,163.571,VALID,0,VALID,26.1375,VALID,30,VALID,0.534766,
2011-04-02, 01:44:05,VALID,1001.87,VALID,0,INVALID,163.586,VALID,0,VALID,26.116,VALID,50,VALID,0.298047,
2011-04-02, 01:45:05,VALID,1001.87,VALID,0,INVALID,163.571,VALID,0,VALID,26.1375,VALID,58,VALID,0.446094,
2011-04-02, 01:46:05,VALID,1001.85,VALID,0,INVALID,163.571,VALID,0,VALID,26.1355,VALID,59,VALID,0.485156,
2011-04-02, 01:47:05,VALID,1001.84,VALID,0,INVALID,163.571,VALID,0,VALID,26.155,VALID,88,VALID,0.446094,
2011-04-02, 01:48:05,VALID,1001.81,VALID,0,INVALID,163.578,VALID,0.100563,VALID,26.1745,VALID,94,VALID,0.312891,
2011-04-02, 01:49:05,VALID,1001.8,VALID,0,INVALID,163.571,VALID,0,VALID,26.1745,VALID,21,VALID,0.239063,
2011-04-02, 01:50:05,VALID,1001.8,VALID,0,INVALID,163.533,VALID,0.100563,VALID,26.1745,VALID,50,VALID,0.529688,
2011-04-02, 01:51:05,VALID,1001.79,VALID,0,INVALID,163.571,VALID,0.100563,VALID,26.194,VALID,35,VALID,0.355469,
2011-04-02, 01:52:05,VALID,1001.73,VALID,0,INVALID,163.571,VALID,0,VALID,26.1745,VALID,72,VALID,0.523828,
2011-04-02, 01:53:05,VALID,1001.74,VALID,0,INVALID,163.571,VALID,0,VALID,26.1745,VALID,71,VALID,0.00703125,
2011-04-02, 01:54:05,VALID,1001.72,VALID,0,INVALID,163.586,VALID,0.100563,VALID,26.1745,VALID,60,VALID,0.172656,
2011-04-02, 01:55:05,VALID,1001.72,VALID,0,INVALID,163.548,VALID,0,VALID,26.1765,VALID,69,VALID,0.349219,
2011-04-02, 01:56:05,VALID,1001.71,VALID,0,INVALID,163.571,VALID,0,VALID,26.155,VALID,100,VALID,0.372266,
2011-04-02, 01:57:05,VALID,1001.71,VALID,0,INVALID,163.556,VALID,0,VALID,26.155,VALID,101,VALID,0.414063,
2011-04-02, 01:58:05,VALID,1001.72,VALID,0,INVALID,163.578,VALID,0,VALID,26.116,VALID,101,VALID,0.2625,
2011-04-02, 01:59:05,VALID,1001.73,VALID,0,INVALID,163.571,VALID,0,VALID,26.0966,VALID,101,VALID,0.238672,
2011-04-02, 02:00:05,VALID,1001.71,VALID,0,INVALID,163.609,VALID,0,VALID,26.0791,VALID,101,VALID,0.387891,
2011-04-02, 02:01:05,VALID,1001.74,VALID,0,INVALID,163.586,VALID,0,VALID,26.0401,VALID,101,VALID,0.260938,
2011-04-02, 02:02:05,VALID,1001.73,VALID,0,INVALID,163.609,VALID,0,VALID,26.0012,VALID,101,VALID,0.00976563,
2011-04-02, 02:03:05,VALID,1001.74,VALID,0,INVALID,163.601,VALID,0,VALID,25.9622,VALID,101,VALID,0.0101562,
2011-04-02, 02:04:05,VALID,1001.75,VALID,0,INVALID,163.578,VALID,0,VALID,25.9232,VALID,101,VALID,0.0253906,
2011-04-02, 02:05:05,VALID,1001.75,VALID,0,INVALID,163.594,VALID,0,VALID,25.8823,VALID,101,VALID,0.219141,
2011-04-02, 02:06:05,VALID,1001.76,VALID,0,INVALID,163.586,VALID,0,VALID,25.8434,VALID,101,VALID,0.173438,
2011-04-02, 02:07:05,VALID,1001.77,VALID,0,INVALID,163.609,VALID,0,VALID,25.8064,VALID,101,VALID,0,
2011-04-02, 02:08:05,VALID,1001.8,VALID,0,INVALID,163.624,VALID,0,VALID,25.7674,VALID,101,VALID,0.00390625,
2011-04-02, 02:09:05,VALID,1001.78,VALID,0,INVALID,163.609,VALID,0.100563,VALID,25.709,VALID,101,VALID,0.192969,
2011-04-02, 02:10:05,VALID,1001.8,VALID,0,INVALID,163.624,VALID,0,VALID,25.6292,VALID,101,VALID,0.00195313,
2011-04-02, 02:11:05,VALID,1001.81,VALID,0,INVALID,163.617,VALID,0,VALID,25.5921,VALID,101,VALID,0.00898437,
2011-04-02, 02:12:05,VALID,1001.78,VALID,0,INVALID,163.617,VALID,0,VALID,25.5513,VALID,101,VALID,0,
2011-04-02, 02:13:05,VALID,1001.81,VALID,0,INVALID,163.617,VALID,0,VALID,25.5123,VALID,101,VALID,0.158984,
2011-04-02, 02:14:05,VALID,1001.81,VALID,0,INVALID,163.624,VALID,0,VALID,25.4344,VALID,101,VALID,0.2125,
2011-04-02, 02:15:05,VALID,1001.81,VALID,0,INVALID,163.624,VALID,0,VALID,25.4169,VALID,101,VALID,0.334766,
2011-04-02, 02:16:05,VALID,1001.78,VALID,0,INVALID,163.647,VALID,0,VALID,25.3565,VALID,101,VALID,0.524219,
2011-04-02, 02:17:05,VALID,1001.77,VALID,0,INVALID,163.639,VALID,0,VALID,25.3176,VALID,101,VALID,0.463672,
2011-04-02, 02:18:05,VALID,1001.8,VALID,0,INVALID,163.624,VALID,0,VALID,25.3,VALID,100,VALID,0.546094,
2011-04-02, 02:19:05,VALID,1001.79,VALID,0,INVALID,163.67,VALID,0,VALID,25.2397,VALID,100,VALID,0.45625,
2011-04-02, 02:20:05,VALID,1001.79,VALID,0,INVALID,163.647,VALID,0,VALID,25.2007,VALID,89,VALID,0.581641,
2011-04-02, 02:21:05,VALID,1001.81,VALID,0,INVALID,163.639,VALID,0,VALID,25.2027,VALID,47,VALID,0.547656,
2011-04-02, 02:22:05,VALID,1001.8,VALID,0,INVALID,163.632,VALID,0,VALID,25.1423,VALID,43,VALID,0.440625,
2011-04-02, 02:23:05,VALID,1001.8,VALID,0,INVALID,163.662,VALID,0,VALID,25.1034,VALID,46,VALID,0.406641,
2011-04-02, 02:24:05,VALID,1001.78,VALID,0,INVALID,163.639,VALID,0.100563,VALID,25.1034,VALID,46,VALID,0.271875,
2011-04-02, 02:25:05,VALID,1001.78,VALID,0,INVALID,163.639,VALID,0.100563,VALID,25.1229,VALID,46,VALID,0.0800781,
2011-04-02, 02:26:05,VALID,1001.76,VALID,0,INVALID,163.632,VALID,0,VALID,25.0839,VALID,46,VALID,0,
2011-04-02, 02:27:05,VALID,1001.75,VALID,0,INVALID,163.647,VALID,0,VALID,25.0469,VALID,46,VALID,0.278906,
2011-04-02, 02:28:05,VALID,1001.75,VALID,0,INVALID,163.662,VALID,0.100563,VALID,24.9671,VALID,46,VALID,0.184375,
2011-04-02, 02:29:05,VALID,1001.72,VALID,0,INVALID,163.67,VALID,0,VALID,24.9068,VALID,46,VALID,0.266406,
2011-04-02, 02:30:05,VALID,1001.72,VALID,0,INVALID,163.708,VALID,0.100563,VALID,24.9282,VALID,46,VALID,0.393359,
2011-04-02, 02:31:05,VALID,1001.76,VALID,0,INVALID,163.67,VALID,0,VALID,24.8892,VALID,46,VALID,0.422656,
2011-04-02, 02:32:05,VALID,1001.72,VALID,0,INVALID,163.662,VALID,0,VALID,24.8697,VALID,46,VALID,0.272656,
2011-04-02, 02:33:05,VALID,1001.73,VALID,0,INVALID,163.655,VALID,0,VALID,24.8503,VALID,46,VALID,0.184766,
2011-04-02, 02:34:05,VALID,1001.73,VALID,0,INVALID,163.639,VALID,0,VALID,24.8697,VALID,46,VALID,0.2875,
2011-04-02, 02:35:05,VALID,1001.74,VALID,0,INVALID,163.662,VALID,0.100563,VALID,24.8873,VALID,49,VALID,0.28125,
2011-04-02, 02:36:05,VALID,1001.74,VALID,0,INVALID,163.685,VALID,0,VALID,24.9282,VALID,48,VALID,0.219531,
2011-04-02, 02:37:05,VALID,1001.75,VALID,0,INVALID,163.662,VALID,0,VALID,24.9671,VALID,48,VALID,0.185156,
2011-04-02, 02:38:05,VALID,1001.73,VALID,0,INVALID,163.647,VALID,0,VALID,24.9866,VALID,48,VALID,0.151562,
2011-04-02, 02:39:05,VALID,1001.76,VALID,0,INVALID,163.662,VALID,0,VALID,24.9866,VALID,48,VALID,0.0410156,
2011-04-02, 02:40:05,VALID,1001.76,VALID,0,INVALID,163.662,VALID,0,VALID,25.045,VALID,48,VALID,0.101172,
2011-04-02, 02:41:05,VALID,1001.76,VALID,0,INVALID,163.647,VALID,0,VALID,25.0644,VALID,49,VALID,0.313281,
2011-04-02, 02:42:05,VALID,1001.75,VALID,0,INVALID,163.685,VALID,0,VALID,25.1034,VALID,51,VALID,0.385547,
2011-04-02, 02:43:05,VALID,1001.72,VALID,0,INVALID,163.662,VALID,0,VALID,25.121,VALID,51,VALID,0.321094,
2011-04-02, 02:44:05,VALID,1001.69,VALID,0,INVALID,163.678,VALID,0,VALID,25.1442,VALID,59,VALID,0.476563,
2011-04-02, 02:45:05,VALID,1001.69,VALID,0,INVALID,163.67,VALID,0,VALID,25.1637,VALID,83,VALID,0.434766,
2011-04-02, 02:46:05,VALID,1001.7,VALID,0,INVALID,163.639,VALID,0,VALID,25.1637,VALID,82,VALID,0.273047,
2011-04-02, 02:47:05,VALID,1001.67,VALID,0,INVALID,163.639,VALID,0,VALID,25.2027,VALID,84,VALID,0.423828,
2011-04-02, 02:48:05,VALID,1001.7,VALID,0,INVALID,163.662,VALID,0,VALID,25.2435,VALID,65,VALID,0.45625,
2011-04-02, 02:49:05,VALID,1001.7,VALID,0,INVALID,163.624,VALID,0,VALID,25.2806,VALID,55,VALID,0.317969,
2011-04-02, 02:50:05,VALID,1001.67,VALID,0,INVALID,163.655,VALID,0,VALID,25.3214,VALID,54,VALID,0.353125,
2011-04-02, 02:51:05,VALID,1001.67,VALID,0,INVALID,163.624,VALID,0,VALID,25.339,VALID,54,VALID,0.233203,
2011-04-02, 02:52:05,VALID,1001.65,VALID,0,INVALID,163.639,VALID,0,VALID,25.3565,VALID,54,VALID,0.649609,
2011-04-02, 02:53:05,VALID,1001.64,VALID,0,INVALID,163.617,VALID,0,VALID,25.4363,VALID,47,VALID,0.466406,
2011-04-02, 02:54:05,VALID,1001.64,VALID,0,INVALID,163.639,VALID,0,VALID,25.4734,VALID,10,VALID,0.440625,
2011-04-02, 02:55:05,VALID,1001.6,VALID,0,INVALID,163.601,VALID,0,VALID,25.5142,VALID,11,VALID,0.498828,
2011-04-02, 02:56:05,VALID,1001.61,VALID,0,INVALID,163.594,VALID,0,VALID,25.5142,VALID,11,VALID,0.516016,
2011-04-02, 02:57:05,VALID,1001.63,VALID,0,INVALID,163.632,VALID,0,VALID,25.4753,VALID,11,VALID,0.441016,
2011-04-02, 02:58:05,VALID,1001.61,VALID,0,INVALID,163.617,VALID,0,VALID,25.4948,VALID,11,VALID,0.422266,
2011-04-02, 02:59:05,VALID,1001.62,VALID,0,INVALID,163.647,VALID,0,VALID,25.4928,VALID,52,VALID,0.299219,
2011-04-02, 03:00:05,VALID,1001.61,VALID,0,INVALID,163.632,VALID,0,VALID,25.5142,VALID,99,VALID,0.500391,
2011-04-02, 03:01:05,VALID,1001.59,VALID,0,INVALID,163.662,VALID,0,VALID,25.4948,VALID,98,VALID,0.271875,
2011-04-02, 03:02:05,VALID,1001.59,VALID,0,INVALID,163.617,VALID,0,VALID,25.4928,VALID,98,VALID,0.196094,
2011-04-02, 03:03:05,VALID,1001.58,VALID,0,INVALID,163.624,VALID,0,VALID,25.4734,VALID,98,VALID,0.360938,
2011-04-02, 03:04:05,VALID,1001.58,VALID,0,INVALID,163.624,VALID,0,VALID,25.4734,VALID,95,VALID,0.114063,
2011-04-02, 03:05:05,VALID,1001.55,VALID,0,INVALID,163.639,VALID,0,VALID,25.4734,VALID,95,VALID,0.294141,
2011-04-02, 03:06:05,VALID,1001.53,VALID,0,INVALID,163.617,VALID,0,VALID,25.4734,VALID,95,VALID,0.31875,
2011-04-02, 03:07:05,VALID,1001.49,VALID,0,INVALID,163.632,VALID,0.100563,VALID,25.4928,VALID,87,VALID,0.203516,
2011-04-02, 03:08:05,VALID,1001.47,VALID,0,INVALID,163.624,VALID,0,VALID,25.5123,VALID,83,VALID,0.322656,
2011-04-02, 03:09:05,VALID,1001.45,VALID,0,INVALID,163.639,VALID,0,VALID,25.4928,VALID,83,VALID,0.240625,
2011-04-02, 03:10:05,VALID,1001.4,VALID,0,INVALID,163.662,VALID,0,VALID,25.4928,VALID,83,VALID,0.449609,
2011-04-02, 03:11:05,VALID,1001.44,VALID,0,INVALID,163.624,VALID,0,VALID,25.4734,VALID,83,VALID,0.350781,
2011-04-02, 03:12:05,VALID,1001.38,VALID,0,INVALID,163.624,VALID,0,VALID,25.4753,VALID,75,VALID,0.366016,
2011-04-02, 03:13:05,VALID,1001.36,VALID,0,INVALID,163.632,VALID,0,VALID,25.4539,VALID,59,VALID,0.464844,
2011-04-02, 03:14:05,VALID,1001.35,VALID,0,INVALID,163.655,VALID,0.100563,VALID,25.4539,VALID,78,VALID,0.575,
2011-04-02, 03:15:05,VALID,1001.3,VALID,0,INVALID,163.639,VALID,0.100563,VALID,25.452,VALID,86,VALID,0.142578,
2011-04-02, 03:16:05,VALID,1001.3,VALID,0,INVALID,163.639,VALID,0.100563,VALID,25.4734,VALID,72,VALID,0.315625,
2011-04-02, 03:17:05,VALID,1001.27,VALID,0,INVALID,163.617,VALID,0.100563,VALID,25.4734,VALID,58,VALID,0.457031,
2011-04-02, 03:18:05,VALID,1001.25,VALID,0,INVALID,163.632,VALID,0.100563,VALID,25.4734,VALID,34,VALID,0.419531,
2011-04-02, 03:19:05,VALID,1001.24,VALID,0,INVALID,163.601,VALID,0.100563,VALID,25.4909,VALID,77,VALID,0.319141,
2011-04-02, 03:20:05,VALID,1001.25,VALID,0,INVALID,163.632,VALID,0.100563,VALID,25.4909,VALID,77,VALID,0.230859,
2011-04-02, 03:21:05,VALID,1001.23,VALID,0,INVALID,163.609,VALID,0.100563,VALID,25.5298,VALID,43,VALID,0.545313,
2011-04-02, 03:22:05,VALID,1001.21,VALID,0,INVALID,163.617,VALID,0.100563,VALID,25.5513,VALID,62,VALID,0.237891,
2011-04-02, 03:23:05,VALID,1001.2,VALID,0,INVALID,163.632,VALID,0.100563,VALID,25.5493,VALID,62,VALID,0.316016,
2011-04-02, 03:24:05,VALID,1001.21,VALID,0,INVALID,163.639,VALID,0.100563,VALID,25.5883,VALID,58,VALID,0.417578,
2011-04-02, 03:25:05,VALID,1001.19,VALID,0,INVALID,163.624,VALID,0.100563,VALID,25.6272,VALID,63,VALID,0.435547,
2011-04-02, 03:26:05,VALID,1001.17,VALID,0,INVALID,163.617,VALID,0.100563,VALID,25.6876,VALID,74,VALID,0.233203,
2011-04-02, 03:27:05,VALID,1001.15,VALID,0,INVALID,163.632,VALID,0.100563,VALID,25.6876,VALID,74,VALID,0.334375,
2011-04-02, 03:28:05,VALID,1001.16,VALID,0,INVALID,163.601,VALID,0.100563,VALID,25.7265,VALID,74,VALID,0.479297,
2011-04-02, 03:29:05,VALID,1001.16,VALID,0,INVALID,163.624,VALID,0.100563,VALID,25.7265,VALID,91,VALID,0.521484,
2011-04-02, 03:30:05,VALID,1001.18,VALID,0,INVALID,163.601,VALID,0.100563,VALID,25.746,VALID,85,VALID,0.534375,
2011-04-02, 03:31:05,VALID,1001.18,VALID,0,INVALID,163.609,VALID,0.100563,VALID,25.746,VALID,91,VALID,0.612109,
2011-04-02, 03:32:05,VALID,1001.16,VALID,0,INVALID,163.624,VALID,0.100563,VALID,25.744,VALID,114,VALID,0.425391,
2011-04-02, 03:33:05,VALID,1001.13,VALID,0,INVALID,163.617,VALID,0.100563,VALID,25.746,VALID,57,VALID,0.35,
2011-04-02, 03:34:05,VALID,1001.15,VALID,0,INVALID,163.617,VALID,0.201126,VALID,25.746,VALID,72,VALID,0.444141,
2011-04-02, 03:35:05,VALID,1001.18,VALID,0,INVALID,163.586,VALID,0.100563,VALID,25.7655,VALID,82,VALID,0.858203,
2011-04-02, 03:36:05,VALID,1001.15,VALID,0,INVALID,163.609,VALID,0.100563,VALID,25.783,VALID,90,VALID,0.667969,
2011-04-02, 03:37:05,VALID,1001.19,VALID,0,INVALID,163.624,VALID,0.100563,VALID,25.8025,VALID,73,VALID,0.671094,
2011-04-02, 03:38:04,VALID,1001.18,VALID,0,INVALID,163.563,VALID,0.100563,VALID,25.8219,VALID,99,VALID,0.482812,
2011-04-02, 03:39:04,VALID,1001.2,VALID,0,INVALID,163.609,VALID,0.100563,VALID,25.8629,VALID,86,VALID,0.552344,